Weather History for Geneva, Switzerland

Change the Weather History Date:

Tuesday, July 16, 2013

  Actual Average Record
Temperature  
Mean Temperature 70 °F -  
Max Temperature 83 °F 75 °F 93 °F (2010)
Min Temperature 58 °F 52 °F 46 °F (2012)
Cooling Degree Days 6    
Growing Degree Days 20 (Base 50)    
Moisture  
Dew Point 55 °F    
Average Humidity 54    
Maximum Humidity 88    
Minimum Humidity 23    
Precipitation  
Precipitation 0.00 in 0.09 in - ()
Sea Level Pressure  
Sea Level Pressure 30.14 in    
Wind  
Wind Speed 3 mph ()    
Max Wind Speed 16 mph    
Max Gust Speed -    
Visibility 8.9 miles    
Events      
Averages and records for this station are not official NWS values.
T = Trace of Precipitation, MM = Missing Value Source: Averaged Metar Reports

Daily Weather History Graph

Daily Weather History Graph

Search for Another Location

Airport:

Trip Planner

Search our weather history database for the weather conditions in past years. The results will help you decide how hot, cold, wet, or windy it might be!

Date:

Astronomy

Jul. 16, 2013 Rise Set
Actual Time 5:59 AM CEST 9:23 PM CEST
Civil Twilight 5:22 AM CEST 10:00 PM CEST
Nautical Twilight 4:33 AM CEST 10:48 PM CEST
Astronomical Twilight 3:30 AM CEST 11:50 PM CEST
Moon 2:37 PM CEST 12:31 AM CEST
Length of Visible Light 16h 37m
Length of Day
15h 23m
First Quarter, 53% of the Moon is Illuminated
Jul 16
First Quarter
Jul 22
Full
Jul 29
Last Quarter
Aug 6
New
Aug 14
First Quarter

Hourly Weather History & Observations

Time (CEST) Temp. Heat Index Dew Point Humidity Pressure Visibility Wind Dir Wind Speed Gust Speed Precip Events Conditions
12:00 AM 67 °F - 56 °F 61% 30.14 in - North 2.3 mph - -  
12:20 AM 64.4 °F - 57.2 °F 77% 30.15 in - Variable 2.3 mph - N/A   Clear
12:50 AM 64.4 °F - 55.4 °F 73% 30.15 in - Variable 2.3 mph - N/A   Clear
1:00 AM 65 °F - 54 °F 60% 30.14 in - SSW 1.2 mph - -  
1:20 AM 64.4 °F - 55.4 °F 73% 30.18 in - Variable 1.2 mph - N/A   Clear
1:50 AM 62.6 °F - 55.4 °F 77% 30.18 in - Calm Calm - N/A   Clear
2:00 AM 63 °F - 54 °F 63% 30.15 in 16 mi WSW 2.3 mph - -  
2:20 AM 62.6 °F - 55.4 °F 77% 30.18 in - West 2.3 mph - N/A   Clear
2:50 AM 62.6 °F - 55.4 °F 77% 30.18 in - Variable 1.2 mph - N/A   Clear
3:00 AM 62 °F - 54 °F 66% 30.16 in - NW 1.2 mph - -  
3:50 AM 60.8 °F - 55.4 °F 82% 30.15 in - Variable 1.2 mph - N/A   Clear
4:00 AM 60 °F - 54 °F 76% 30.16 in - West 2.3 mph - -  
4:20 AM 59.0 °F - 55.4 °F 88% 30.15 in - Variable 2.3 mph - N/A   Clear
4:50 AM 59.0 °F - 55.4 °F 88% 30.15 in - Variable 1.2 mph - N/A   Clear
5:00 AM 59 °F - 54 °F 78% 30.16 in 16 mi WNW 2.3 mph - -  
5:20 AM 59.0 °F - 55.4 °F 88% 30.15 in - Variable 1.2 mph - N/A   Clear
5:50 AM 59.0 °F - 53.6 °F 82% 30.18 in - Calm Calm - N/A   Clear
6:00 AM 59 °F - 54 °F 78% 30.17 in - WSW 1.2 mph - -  
6:20 AM 59.0 °F - 53.6 °F 82% 30.18 in - Variable 1.2 mph - N/A   Clear
6:50 AM 59.0 °F - 55.4 °F 88% 30.18 in - Calm Calm - N/A   Clear
7:00 AM 60 °F - 55 °F 77% 30.16 in - WNW 2.3 mph - -  
7:20 AM 60.8 °F - 55.4 °F 82% 30.18 in - Variable 1.2 mph - N/A   Clear
7:50 AM 64.4 °F - 57.2 °F 77% 30.18 in - Calm Calm - N/A   Clear
8:00 AM 66 °F - 57 °F 64% 30.15 in 19 mi NW 1.2 mph - -   Clear
8:20 AM 69.8 °F - 55.4 °F 60% 30.18 in - Variable 1.2 mph - N/A   Clear
8:50 AM 69.8 °F - 53.6 °F 56% 30.18 in - Variable 2.3 mph - N/A   Clear
9:00 AM 69 °F - 53 °F 47% 30.15 in - NE 6.7 mph - -  
9:20 AM 71.6 °F - 53.6 °F 53% 30.18 in - Variable 3.5 mph - N/A   Clear
9:50 AM 71.6 °F - 53.6 °F 53% 30.18 in - NE 5.8 mph - N/A   Clear
10:00 AM 71 °F - 52 °F 40% 30.14 in - NE 15.7 mph - -  
10:20 AM 71.6 °F - 51.8 °F 50% 30.18 in - NE 6.9 mph - N/A   Clear
10:50 AM 73.4 °F - 53.6 °F 50% 30.18 in - NE 8.1 mph - N/A   Clear
11:00 AM 72 °F - 51 °F 37% 30.14 in 19 mi NE 6.9 mph - -   Clear
11:20 AM 75.2 °F - 51.8 °F 44% 30.18 in - NE 5.8 mph - N/A   Clear
11:50 AM 77.0 °F - 51.8 °F 41% 30.18 in - ENE 6.9 mph - N/A   Clear
12:00 PM 77 °F - 54 °F 35% 30.12 in - NNE 6.9 mph - -  
12:20 PM 77.0 °F - 53.6 °F 44% 30.18 in 6.2 mi NNE 5.8 mph - N/A   Partly Cloudy
12:50 PM 78.8 °F - 53.6 °F 42% 30.15 in 6.2 mi NE 6.9 mph - N/A   Partly Cloudy
1:00 PM 78 °F - 53 °F 32% 30.10 in - NE 6.9 mph - -  
1:20 PM 78.8 °F - 53.6 °F 42% 30.15 in 6.2 mi ENE 5.8 mph - N/A   Partly Cloudy
1:50 PM 78.8 °F - 53.6 °F 42% 30.15 in 6.2 mi ENE 5.8 mph - N/A   Partly Cloudy
2:00 PM 80 °F - 56 °F 33% 30.09 in 19 mi NE 11.2 mph - -   Scattered Clouds
2:20 PM 80.6 °F 80.5 °F 55.4 °F 42% 30.15 in 6.2 mi NE 6.9 mph - N/A   Partly Cloudy
2:50 PM 80.6 °F 80.5 °F 55.4 °F 42% 30.12 in 6.2 mi NNE 5.8 mph - N/A   Partly Cloudy
3:00 PM 81 °F - 55 °F 30% 30.07 in - NE 6.9 mph - -  
3:20 PM 82.4 °F 81.7 °F 55.4 °F 39% 30.12 in 6.2 mi NE 5.8 mph - N/A   Partly Cloudy
3:50 PM 84.2 °F 83.0 °F 55.4 °F 37% 30.12 in 6.2 mi NE 6.9 mph - N/A   Partly Cloudy
4:00 PM 82 °F - 54 °F 28% 30.06 in - NNE 5.8 mph - -  
4:20 PM 84.2 °F 82.8 °F 53.6 °F 35% 30.12 in 6.2 mi ENE 5.8 mph - N/A   Partly Cloudy
4:50 PM 84.2 °F 82.8 °F 53.6 °F 35% 30.12 in 6.2 mi East 4.6 mph - N/A   Partly Cloudy
5:00 PM 83 °F - 53 °F 26% 30.05 in 16 mi East 4.6 mph - -   Scattered Clouds
5:20 PM 84.2 °F - 51.8 °F 33% 30.12 in 6.2 mi ENE 4.6 mph - N/A   Partly Cloudy
5:50 PM 84.2 °F - 51.8 °F 33% 30.12 in 6.2 mi East 4.6 mph - N/A   Partly Cloudy
6:00 PM 84 °F - 52 °F 23% 30.04 in - ENE 4.6 mph - -  
6:20 PM 84.2 °F 82.8 °F 53.6 °F 35% 30.12 in 6.2 mi East 5.8 mph - N/A   Partly Cloudy
6:50 PM 82.4 °F - 51.8 °F 35% 30.09 in 6.2 mi East 5.8 mph - N/A   Scattered Clouds
7:00 PM 82 °F - 54 °F 27% 30.04 in - East 5.8 mph - -  
7:20 PM 84.2 °F 82.8 °F 53.6 °F 35% 30.09 in 6.2 mi East 4.6 mph - N/A   Scattered Clouds
7:50 PM 82.4 °F 81.7 °F 55.4 °F 39% 30.09 in 6.2 mi NE 3.5 mph - N/A   Scattered Clouds
8:00 PM 82 °F - 55 °F 29% 30.04 in 16 mi NNE 6.7 mph - -   Scattered Clouds
8:20 PM 80.6 °F 80.8 °F 57.2 °F 45% 30.12 in 6.2 mi Variable 2.3 mph - N/A   Scattered Clouds
8:50 PM 78.8 °F - 57.2 °F 47% 30.12 in 6.2 mi Calm Calm - N/A   Scattered Clouds
9:00 PM 75 °F - 57 °F 43% 30.07 in - ENE 1.2 mph - -  
9:20 PM 75.2 °F - 59.0 °F 57% 30.12 in 6.2 mi Calm Calm - N/A   Mostly Cloudy
9:50 PM 75.2 °F - 59.0 °F 57% 30.12 in 6.2 mi Variable 2.3 mph - N/A   Mostly Cloudy
10:00 PM 76 °F - 60 °F 48% 30.07 in - SSW 5.8 mph - -  
10:20 PM 77.0 °F - 60.8 °F 57% 30.12 in 6.2 mi SSW 5.8 mph - N/A   Mostly Cloudy
10:50 PM 73.4 °F - 60.8 °F 65% 30.12 in 6.2 mi Variable 1.2 mph - N/A   Scattered Clouds
11:00 PM 72 °F - 61 °F 59% 30.09 in 16 mi East 1.2 mph - -   Scattered Clouds
11:20 PM 71.6 °F - 60.8 °F 69% 30.12 in 6.2 mi Calm Calm - N/A   Scattered Clouds
11:50 PM 71.6 °F - 60.8 °F 69% 30.15 in 6.2 mi Variable 1.2 mph - N/A   Scattered Clouds